TimeEDT,TemperatureF,Dew PointF,Humidity,Sea Level PressureIn,VisibilityMPH,Wind Direction,Wind SpeedMPH,Gust SpeedMPH,PrecipitationIn,Events,Conditions,WindDirDegrees,DateUTC
12:15 AM,33.8,26.6,75,30.29,10.0,South,3.5,-,N/A,,Clear,170,2013-03-11 04:15:00
12:35 AM,33.8,26.6,75,30.29,10.0,Calm,Calm,-,N/A,,Partly Cloudy,0,2013-03-11 04:35:00
1:35 AM,30.2,26.6,86,30.31,10.0,Calm,Calm,-,N/A,,Clear,0,2013-03-11 05:35:00
1:55 AM,30.2,28.4,93,30.31,10.0,Calm,Calm,-,N/A,,Scattered Clouds,0,2013-03-11 05:55:00
2:35 AM,33.8,26.6,75,30.29,10.0,Calm,Calm,-,N/A,,Overcast,0,2013-03-11 06:35:00
2:55 AM,33.8,28.4,81,30.29,10.0,SSW,4.6,-,N/A,,Overcast,200,2013-03-11 06:55:00
3:15 AM,33.8,28.4,81,30.27,10.0,South,5.8,-,N/A,,Scattered Clouds,190,2013-03-11 07:15:00
3:35 AM,33.8,28.4,81,30.25,10.0,SSW,6.9,-,N/A,,Clear,210,2013-03-11 07:35:00
3:55 AM,32.0,28.4,87,30.24,10.0,South,3.5,-,N/A,,Clear,180,2013-03-11 07:55:00
4:15 AM,32.0,26.6,80,30.23,10.0,SSW,3.5,-,N/A,,Clear,200,2013-03-11 08:15:00
4:35 AM,32.0,28.4,87,30.24,10.0,SSW,4.6,-,N/A,,Partly Cloudy,210,2013-03-11 08:35:00
4:55 AM,32.0,26.6,80,30.24,10.0,SW,5.8,-,N/A,,Partly Cloudy,220,2013-03-11 08:55:00
5:15 AM,32.0,28.4,87,30.22,10.0,South,6.9,-,N/A,,Clear,190,2013-03-11 09:15:00
5:35 AM,32.0,26.6,80,30.22,10.0,SSW,3.5,-,N/A,,Clear,210,2013-03-11 09:35:00
5:55 AM,32.0,28.4,87,30.22,8.0,South,3.5,-,N/A,,Clear,180,2013-03-11 09:55:00
6:15 AM,32.0,26.6,80,30.22,8.0,SSW,4.6,-,N/A,,Clear,200,2013-03-11 10:15:00
6:35 AM,30.2,28.4,93,30.24,8.0,SSW,5.8,-,N/A,,Mostly Cloudy,210,2013-03-11 10:35:00
6:55 AM,32.0,26.6,80,30.23,8.0,SW,10.4,-,N/A,,Overcast,220,2013-03-11 10:55:00
7:15 AM,32.0,28.4,87,30.24,8.0,SSW,10.4,17.3,N/A,,Overcast,210,2013-03-11 11:15:00
7:35 AM,32.0,28.4,87,30.23,7.0,SSW,8.1,-,N/A,,Overcast,200,2013-03-11 11:35:00
7:55 AM,32.0,30.2,93,30.24,7.0,SW,8.1,-,N/A,,Overcast,220,2013-03-11 11:55:00
8:15 AM,32.0,26.6,80,30.24,7.0,SSW,4.6,-,N/A,,Overcast,210,2013-03-11 12:15:00
8:35 AM,33.8,28.4,81,30.24,8.0,SW,5.8,-,N/A,,Overcast,220,2013-03-11 12:35:00
8:55 AM,33.8,30.2,87,30.24,8.0,SSW,9.2,-,N/A,,Overcast,210,2013-03-11 12:55:00
9:15 AM,33.8,28.4,81,30.23,9.0,SSW,4.6,-,N/A,,Overcast,210,2013-03-11 13:15:00
9:35 AM,35.6,28.4,75,30.23,10.0,SSW,10.4,-,N/A,,Overcast,200,2013-03-11 13:35:00
9:55 AM,35.6,28.4,75,30.23,10.0,SSW,8.1,-,N/A,,Mostly Cloudy,200,2013-03-11 13:55:00
10:15 AM,37.4,30.2,75,30.23,10.0,SSW,5.8,-,N/A,,Partly Cloudy,210,2013-03-11 14:15:00
10:35 AM,39.2,28.4,65,30.23,10.0,SSW,6.9,-,N/A,,Clear,200,2013-03-11 14:35:00
10:55 AM,41.0,28.4,61,30.23,10.0,WSW,5.8,-,N/A,,Clear,240,2013-03-11 14:55:00
11:15 AM,42.8,28.4,57,30.23,10.0,Calm,Calm,-,N/A,,Clear,0,2013-03-11 15:15:00
11:35 AM,44.6,28.4,53,30.22,10.0,South,5.8,-,N/A,,Clear,190,2013-03-11 15:35:00
11:55 AM,44.6,28.4,53,30.21,10.0,SSW,3.5,-,N/A,,Clear,200,2013-03-11 15:55:00
12:15 PM,44.6,28.4,53,30.21,10.0,South,5.8,-,N/A,,Clear,180,2013-03-11 16:15:00
12:35 PM,46.4,28.4,50,30.21,10.0,SW,6.9,-,N/A,,Clear,220,2013-03-11 16:35:00
12:55 PM,46.4,26.6,46,30.20,10.0,South,6.9,-,N/A,,Clear,190,2013-03-11 16:55:00
1:15 PM,48.2,28.4,46,30.19,10.0,SSW,5.8,-,N/A,,Clear,200,2013-03-11 17:15:00
1:35 PM,48.2,26.6,43,30.19,10.0,South,6.9,-,N/A,,Clear,190,2013-03-11 17:35:00
1:55 PM,50.0,26.6,40,30.18,10.0,South,6.9,-,N/A,,Clear,170,2013-03-11 17:55:00
2:15 PM,51.8,24.8,35,30.18,10.0,SSW,8.1,-,N/A,,Clear,200,2013-03-11 18:15:00
2:35 PM,51.8,24.8,35,30.17,10.0,SSW,6.9,-,N/A,,Clear,200,2013-03-11 18:35:00
2:55 PM,51.8,26.6,38,30.16,10.0,South,6.9,-,N/A,,Clear,190,2013-03-11 18:55:00
3:35 PM,50.0,24.8,37,30.16,10.0,SSW,10.4,-,N/A,,Clear,200,2013-03-11 19:35:00
3:55 PM,48.2,26.6,43,30.16,10.0,South,6.9,-,N/A,,Clear,190,2013-03-11 19:55:00
4:15 PM,48.2,28.4,46,30.16,10.0,South,6.9,-,N/A,,Clear,180,2013-03-11 20:15:00
4:35 PM,48.2,28.4,46,30.15,10.0,South,5.8,-,N/A,,Clear,190,2013-03-11 20:35:00
4:55 PM,46.4,30.2,53,30.15,10.0,South,4.6,-,N/A,,Clear,170,2013-03-11 20:55:00
5:15 PM,46.4,30.2,53,30.15,10.0,SSE,4.6,-,N/A,,Mostly Cloudy,160,2013-03-11 21:15:00
5:35 PM,44.6,32.0,61,30.15,10.0,South,4.6,-,N/A,,Mostly Cloudy,170,2013-03-11 21:35:00
5:55 PM,44.6,32.0,61,30.15,10.0,SSE,3.5,-,N/A,,Partly Cloudy,160,2013-03-11 21:55:00
6:15 PM,42.8,33.8,70,30.16,10.0,SSE,5.8,-,N/A,,Clear,160,2013-03-11 22:15:00
6:35 PM,42.8,33.8,70,30.15,10.0,SSE,3.5,-,N/A,,Clear,160,2013-03-11 22:35:00
7:15 PM,42.8,33.8,70,30.15,10.0,SSE,3.5,-,N/A,,Clear,150,2013-03-11 23:15:00
7:35 PM,41.0,32.0,70,30.15,10.0,SE,3.5,-,N/A,,Clear,140,2013-03-11 23:35:00
7:55 PM,41.0,33.8,76,30.15,10.0,Calm,Calm,-,N/A,,Clear,0,2013-03-11 23:55:00
8:15 PM,39.2,35.6,87,30.16,10.0,Calm,Calm,-,N/A,,Partly Cloudy,0,2013-03-12 00:15:00
8:35 PM,39.2,33.8,81,30.15,10.0,South,4.6,-,N/A,,Partly Cloudy,170,2013-03-12 00:35:00
8:55 PM,41.0,33.8,76,30.15,10.0,South,4.6,-,N/A,,Clear,180,2013-03-12 00:55:00
9:15 PM,41.0,33.8,76,30.14,10.0,South,6.9,-,N/A,,Clear,170,2013-03-12 01:15:00
9:35 PM,42.8,35.6,76,30.14,10.0,South,5.8,-,N/A,,Clear,190,2013-03-12 01:35:00
9:55 PM,41.0,35.6,81,30.14,10.0,South,3.5,-,N/A,,Clear,190,2013-03-12 01:55:00
10:15 PM,39.2,33.8,81,30.14,10.0,South,4.6,-,N/A,,Clear,190,2013-03-12 02:15:00
10:35 PM,39.2,33.8,81,30.14,10.0,South,4.6,-,N/A,,Clear,170,2013-03-12 02:35:00
10:55 PM,39.2,33.8,81,30.14,10.0,Calm,Calm,-,N/A,,Clear,0,2013-03-12 02:55:00
11:15 PM,37.4,35.6,93,30.13,10.0,Calm,Calm,-,N/A,,Clear,0,2013-03-12 03:15:00
11:35 PM,37.4,35.6,93,30.14,9.0,Calm,Calm,-,N/A,,Mostly Cloudy,0,2013-03-12 03:35:00
11:55 PM,39.2,35.6,87,30.14,8.0,South,3.5,-,N/A,,Overcast,190,2013-03-12 03:55:00